Temp
61 61 61 61 61 61 61 61 61 61 61 61 62 62 62 62 62 57 50 57 61 66 64 57 56 55 55 53 56 54 41 38 42 44 45 50 49 54 55 53 56 59 55 57 62
61 61 61 61 61 61 61 61 61 61 61 61 61 61 62 62 55 52 62 67 67 67 57 55 54 55 49 50 52 46 38 43 46 45 44 49 48 48 48 48 48 51 56 59 59
60 60 60 60 60 60 61 60 60 60 61 61 61 61 61 58 51 51 66 67 67 65 58 57 57 55 48 49 47 46 41 48 47 49 48 47 44 46 43 43 48 48 52 54 55
60 60 59 60 60 60 60 60 60 60 61 61 61 61 61 54 41 55 65 66 66 62 59 56 54 48 46 44 49 42 48 48 50 50 47 44 47 45 44 47 53 52 53 53 54
59 59 59 59 59 60 60 60 60 60 60 61 61 61 55 48 47 61 64 62 61 59 54 53 50 46 44 45 46 42 44 48 48 49 47 49 45 44 45 49 51 52 55 54 55
59 58 58 58 59 59 60 60 60 60 60 61 62 61 51 43 58 60 59 58 57 55 52 52 49 50 46 44 42 43 44 45 47 47 47 45 42 43 46 47 51 52 52 53 52
59 58 58 58 59 59 59 59 60 60 60 61 62 58 50 48 57 58 58 55 55 54 50 52 51 49 47 42 46 45 41 43 43 46 44 46 41 40 45 47 48 49 48 49 51
58 58 58 58 58 59 59 59 59 59 60 61 62 52 44 57 54 58 58 55 57 57 54 54 54 50 47 46 45 40 38 33 41 43 45 44 33 44 47 45 46 46 46 48 50
58 57 58 58 58 58 59 59 59 60 61 61 52 48 43 60 53 56 54 51 53 54 54 61 53 45 43 37 34 34 29 29 36 42 41 38 34 44 46 45 43 43 45 47 48
58 58 58 58 58 58 59 59 59 59 59 59 58 46 50 47 52 54 54 54 50 50 50 49 42 36 33 33 28 30 28 30 30 37 36 34 35 43 46 44 41 42 43 46 49
58 58 58 58 58 59 55 52 49 48 50 44 45 46 48 52 53 52 53 51 50 47 38 42 36 32 32 34 35 33 29 28 31 38 35 31 32 38 44 42 41 41 43 45 48
58 58 58 58 58 58 53 47 45 45 42 49 49 49 51 50 46 49 53 45 44 37 40 37 33 37 40 39 35 34 30 28 33 37 35 32 33 38 41 42 41 42 43 43 44
58 57 57 57 57 53 48 46 52 50 42 46 48 48 47 49 43 45 48 44 41 37 34 34 37 42 39 35 33 32 31 29 30 32 34 31 30 35 42 43 44 43 44 44 43
57 57 57 57 53 49 45 51 51 49 34 41 43 46 49 47 42 50 48 44 41 36 35 34 39 38 35 34 33 31 35 32 31 28 19 31 17 30 36 39 40 41 41 42 43
56 56 55 57 48 47 49 51 50 46 26 43 44 52 49 44 42 44 48 44 37 37 36 32 33 34 34 34 36 33 35 32 31 26 24 26 17 28 34 36 38 37 39 40 41
56 54 53 53 50 49 51 50 46 34 27 36 43 42 41 43 42 44 43 45 42 37 36 33 37 35 34 36 36 37 32 31 30 26 9 25 24 25 31 36 36 37 39 40 39
55 53 51 51 47 50 49 47 34 28 39 34 35 40 37 36 39 39 37 34 31 28 28 32 33 34 37 32 34 33 24 8 11 7 10 28 24 29 36 38 39 37 38 37 37
55 51 49 48 47 47 47 37 30 30 31 37 36 36 34 35 35 36 34 31 32 30 23 25 24 32 36 32 29 29 22 10 6 5 11 26 18 29 38 39 40 39 37 37 37
51 46 45 45 47 46 41 31 32 33 36 34 34 29 29 33 33 34 32 31 33 32 27 25 28 33 35 35 33 27 16 28 6 6 7 18 25 35 38 37 36 35 37 34 36
45 43 42 45 46 45 34 35 33 39 39 38 32 29 24 27 31 31 31 35 33 35 34 30 24 32 33 34 33 29 32 17 11 4 2 13 18 25 32 35 33 32 33 33 34
44 39 42 45 45 38 32 33 34 41 42 37 33 33 30 26 29 25 29 34 36 34 35 31 28 27 31 28 26 21 16 17 18 16 4 3 16 28 32 34 28 30 32 31 32
42 34 42 43 34 32 31 34 41 37 40 38 37 35 32 30 24 26 31 34 38 36 29 32 27 21 27 30 31 30 26 21 10 11 14 11 17 35 35 34 32 30 31 32 31
39 34 42 40 30 28 32 35 38 35 35 35 34 36 35 30 27 26 30 36 37 34 29 31 22 16 23 26 29 28 29 27 12 10 12 6 17 36 35 34 31 29 30 30 31
36 30 33 35 34 34 30 31 32 38 37 38 35 36 33 28 30 25 29 33 35 34 40 37 23 21 24 28 26 24 27 27 17 6 6 15 21 34 36 26 30 30 27 26 31
38 33 33 26 28 33 36 34 31 29 37 37 30 33 33 27 26 24 29 29 32 38 33 31 18 17 19 23 23 25 25 25 20 16 15 24 16 27 23 25 26 21 26 27 29
34 33 33 30 32 32 34 31 31 31 33 31 30 34 32 28 33 27 26 28 28 29 29 30 18 22 18 23 23 21 25 25 26 25 20 25 25 37 37 32 22 22 18 28 28
40 41 38 34 31 32 35 36 35 35 34 36 35 33 30 33 34 34 34 33 31 27 24 24 19 12 17 21 21 19 24 25 19 17 22 14 25 23 20 21 14 24 25 28 27
MSLP
1020.39 1020.14 1019.56 1019.08 1019.02 1018.65 1018.16 1017.98 1017.64 1017.28 1017.03 1016.70 1016.31 1015.99 1015.74 1015.44 1015.00 1014.90 1015.06 1015.26 1014.77 1014.18 1013.97 1013.82 1013.73 1013.66 1013.67 1013.68 1013.62 1013.86 1014.87 1015.07 1014.48 1014.33 1014.31 1014.29 1014.18 1013.71 1013.53 1013.10 1012.82 1012.40 1012.43 1012.48 1012.41
1020.43 1020.14 1019.67 1019.17 1019.01 1018.47 1018.11 1017.89 1017.65 1017.21 1016.95 1016.58 1016.23 1016.01 1015.76 1015.48 1015.37 1015.21 1015.20 1014.67 1014.31 1014.00 1013.93 1013.82 1013.84 1013.77 1013.95 1013.79 1013.90 1014.27 1014.97 1014.66 1014.50 1014.42 1014.53 1014.42 1014.57 1014.62 1014.44 1014.05 1013.58 1013.21 1012.98 1012.77 1012.72
1020.46 1020.03 1019.54 1019.40 1018.77 1018.37 1018.11 1017.75 1017.50 1017.18 1016.89 1016.49 1016.17 1015.90 1015.70 1015.56 1015.52 1015.41 1014.99 1014.51 1014.03 1013.61 1013.75 1013.79 1013.78 1013.74 1013.85 1013.90 1014.16 1014.37 1014.61 1014.47 1014.56 1014.56 1014.70 1014.85 1014.96 1015.05 1014.95 1014.48 1013.74 1013.49 1013.21 1013.00 1013.00
1020.17 1019.84 1019.54 1019.27 1018.72 1018.31 1017.95 1017.64 1017.28 1017.00 1016.77 1016.36 1016.06 1015.74 1015.51 1015.55 1015.94 1015.26 1014.85 1014.42 1013.99 1013.47 1013.64 1013.72 1013.79 1013.87 1014.07 1014.23 1014.20 1014.47 1014.54 1014.60 1014.73 1014.77 1014.94 1015.19 1015.16 1015.31 1015.01 1014.37 1013.72 1013.57 1013.50 1013.25 1012.92
1019.94 1019.65 1019.47 1019.09 1018.68 1018.18 1017.80 1017.46 1017.10 1016.82 1016.59 1016.20 1015.92 1015.64 1015.46 1015.69 1015.76 1015.19 1014.85 1014.50 1014.09 1013.90 1014.21 1014.16 1014.33 1014.55 1014.55 1014.62 1014.64 1014.86 1014.89 1014.84 1014.82 1014.82 1014.95 1015.12 1015.22 1015.34 1014.73 1014.22 1013.89 1013.62 1013.48 1013.32 1012.98
1019.87 1019.47 1019.20 1018.99 1018.55 1018.07 1017.65 1017.27 1016.89 1016.63 1016.34 1016.07 1015.84 1015.65 1015.45 1015.66 1015.31 1015.17 1014.94 1014.70 1014.64 1014.59 1014.74 1014.67 1014.93 1014.89 1014.90 1015.06 1015.26 1015.40 1015.44 1015.40 1015.28 1015.18 1015.20 1015.23 1015.01 1015.20 1014.27 1013.96 1013.82 1013.80 1013.68 1013.42 1013.19
1019.73 1019.31 1018.94 1018.82 1018.38 1017.94 1017.47 1017.03 1016.67 1016.39 1016.19 1015.96 1015.72 1015.70 1015.47 1015.62 1015.32 1015.21 1015.01 1014.93 1014.86 1014.89 1015.00 1015.07 1015.13 1015.17 1015.26 1015.59 1015.82 1015.90 1016.04 1015.73 1015.74 1015.70 1015.57 1015.34 1014.64 1014.75 1014.07 1014.02 1013.80 1013.68 1013.45 1013.19 1013.01
1019.56 1019.19 1018.82 1018.60 1018.13 1017.69 1017.19 1016.70 1016.38 1016.13 1015.95 1015.82 1015.67 1015.69 1015.63 1015.34 1015.41 1015.24 1015.05 1014.95 1014.93 1014.88 1014.94 1014.99 1015.03 1015.29 1015.72 1016.07 1016.27 1016.65 1016.76 1017.06 1016.60 1016.57 1016.32 1016.49 1015.73 1014.15 1014.11 1014.20 1014.10 1013.50 1013.25 1012.77 1012.15
1019.40 1019.09 1018.80 1018.13 1017.92 1017.47 1016.81 1016.30 1015.93 1015.68 1015.70 1015.66 1015.69 1015.67 1015.72 1015.43 1015.57 1015.48 1015.40 1015.40 1015.25 1015.04 1014.96 1014.98 1015.20 1016.13 1016.64 1017.01 1017.69 1018.20 1018.40 1018.36 1017.79 1017.48 1017.47 1017.33 1016.23 1014.10 1014.37 1014.58 1014.29 1013.71 1013.24 1012.94 1012.20
1019.11 1018.91 1018.72 1018.26 1017.69 1017.17 1016.42 1015.85 1015.57 1015.52 1015.50 1015.54 1015.68 1016.08 1015.94 1015.84 1015.78 1015.65 1015.46 1015.50 1015.44 1015.35 1015.36 1015.48 1016.38 1017.21 1018.08 1018.26 1018.80 1019.15 1019.40 1019.40 1019.25 1018.45 1018.29 1017.85 1016.50 1015.00 1014.14 1014.22 1013.62 1013.51 1013.06 1012.78 1012.50
1019.00 1019.04 1018.73 1018.04 1017.46 1016.92 1016.37 1016.07 1016.31 1016.38 1016.19 1016.24 1016.34 1016.17 1016.14 1016.15 1015.93 1015.90 1015.76 1015.65 1015.51 1015.75 1016.25 1016.58 1017.58 1018.40 1018.91 1018.84 1018.92 1019.31 1019.70 1019.95 1019.30 1018.99 1018.76 1017.94 1017.40 1015.43 1013.81 1013.44 1013.12 1013.04 1012.99 1012.87 1012.87
1018.80 1018.73 1018.46 1018.13 1017.61 1016.82 1016.89 1017.58 1018.23 1018.67 1017.49 1016.51 1016.39 1016.39 1016.25 1016.41 1016.22 1016.19 1015.90 1016.10 1015.88 1016.48 1016.67 1017.44 1018.15 1018.42 1018.74 1018.97 1019.06 1019.32 1019.62 1019.68 1019.05 1019.01 1019.45 1018.19 1016.88 1015.22 1013.96 1013.12 1012.77 1012.80 1013.28 1013.50 1013.60
1018.55 1018.52 1018.26 1017.83 1017.46 1017.53 1017.94 1018.35 1018.35 1018.43 1018.08 1016.82 1016.47 1016.43 1016.48 1016.54 1016.58 1016.58 1016.40 1016.33 1016.29 1016.91 1017.31 1017.66 1018.10 1018.38 1018.71 1018.89 1019.24 1019.30 1019.52 1019.96 1020.41 1019.69 1019.07 1018.77 1016.68 1015.29 1013.93 1013.15 1013.02 1013.27 1013.57 1013.79 1013.92
1018.26 1018.37 1018.18 1018.02 1017.96 1018.19 1018.39 1018.43 1018.37 1018.44 1018.20 1017.06 1016.63 1016.49 1016.50 1016.43 1016.74 1016.56 1016.62 1016.73 1016.85 1017.37 1017.94 1018.17 1018.40 1018.58 1018.76 1019.04 1019.47 1019.37 1019.68 1020.32 1020.73 1021.02 1020.73 1019.52 1018.33 1015.83 1014.53 1013.66 1013.54 1013.67 1014.03 1014.22 1014.27
1017.95 1018.19 1018.13 1018.31 1018.73 1018.66 1018.89 1018.50 1018.38 1018.55 1018.12 1017.13 1016.61 1016.47 1016.41 1016.69 1016.90 1016.65 1016.67 1016.51 1017.21 1017.56 1018.01 1018.72 1018.81 1018.86 1018.96 1019.20 1019.62 1019.77 1020.13 1020.81 1021.25 1021.79 1021.66 1020.52 1019.62 1015.86 1014.98 1013.99 1013.90 1014.17 1014.47 1014.62 1014.43
1017.55 1017.89 1018.10 1018.39 1018.64 1019.14 1018.64 1018.55 1018.54 1018.69 1017.67 1016.90 1016.68 1016.62 1016.68 1016.63 1016.73 1016.78 1016.93 1016.81 1017.30 1017.82 1018.29 1019.01 1019.19 1019.19 1019.21 1019.42 1019.88 1020.19 1020.80 1021.68 1022.23 1023.00 1022.94 1021.37 1020.15 1016.58 1015.16 1013.81 1013.89 1014.33 1014.46 1014.33 1014.28
1017.30 1017.69 1018.18 1018.31 1018.84 1018.86 1018.68 1018.52 1018.95 1018.32 1017.50 1017.37 1017.11 1017.02 1017.00 1017.08 1017.05 1017.20 1017.48 1017.51 1017.84 1018.55 1019.08 1019.37 1019.50 1019.53 1019.54 1019.92 1020.35 1020.94 1021.99 1024.06 1024.80 1025.12 1024.07 1021.77 1020.50 1016.48 1014.48 1013.67 1013.75 1014.44 1014.65 1014.29 1014.07
1017.31 1017.60 1018.10 1018.37 1018.79 1018.80 1018.67 1018.99 1018.69 1018.02 1017.63 1017.63 1017.63 1017.61 1017.68 1017.68 1017.61 1017.65 1018.00 1018.20 1018.39 1018.83 1019.76 1019.82 1019.93 1019.91 1019.82 1020.46 1021.06 1021.98 1023.21 1025.48 1027.10 1027.97 1025.57 1022.36 1019.87 1015.55 1013.77 1013.34 1013.65 1014.11 1014.40 1013.98 1013.98
1017.37 1017.98 1018.36 1018.47 1018.63 1018.88 1019.49 1019.26 1018.29 1018.10 1017.66 1018.05 1018.34 1018.39 1018.48 1018.34 1018.33 1018.29 1018.49 1018.50 1018.45 1018.89 1019.66 1020.13 1020.17 1020.27 1020.34 1020.88 1021.73 1022.67 1023.83 1025.06 1027.24 1028.72 1027.47 1023.02 1019.02 1015.40 1013.37 1013.69 1013.78 1014.22 1013.80 1014.21 1013.98
1017.83 1018.24 1018.56 1018.47 1018.75 1018.86 1019.55 1018.87 1018.20 1017.88 1018.17 1018.28 1018.66 1018.86 1019.01 1018.99 1019.13 1018.96 1018.70 1018.43 1018.77 1019.00 1019.37 1019.95 1020.64 1020.77 1021.09 1021.56 1022.28 1022.67 1023.88 1025.57 1027.65 1028.90 1027.78 1023.55 1020.69 1016.76 1014.35 1014.00 1014.16 1014.32 1014.65 1014.40 1014.08
1017.99 1018.45 1018.61 1018.48 1018.68 1019.13 1018.86 1018.10 1017.85 1017.46 1017.90 1018.50 1018.57 1019.00 1019.27 1019.46 1019.40 1019.17 1018.85 1018.75 1018.74 1019.26 1019.49 1020.06 1020.74 1021.66 1021.60 1021.77 1021.87 1023.26 1024.04 1025.75 1027.04 1028.14 1028.16 1026.09 1019.52 1015.04 1014.03 1014.01 1014.59 1014.99 1014.78 1014.47 1014.17
1017.69 1018.30 1018.79 1018.55 1019.00 1018.69 1018.25 1017.49 1017.06 1017.65 1018.19 1018.22 1018.70 1018.96 1019.28 1019.52 1019.60 1019.60 1018.90 1018.51 1018.61 1019.00 1019.80 1020.34 1021.14 1021.83 1021.26 1021.28 1021.39 1022.09 1023.06 1024.52 1026.42 1027.74 1027.41 1026.02 1019.39 1014.57 1013.99 1014.22 1014.68 1014.94 1014.86 1014.45 1014.21
1017.13 1018.13 1018.63 1018.57 1018.09 1018.14 1017.89 1017.39 1017.32 1017.57 1017.86 1018.37 1018.66 1019.05 1019.37 1019.83 1020.12 1019.47 1019.05 1019.08 1019.01 1019.40 1019.82 1020.49 1021.43 1022.10 1021.93 1022.09 1021.86 1022.06 1022.54 1023.61 1025.21 1026.42 1026.58 1025.60 1018.75 1014.54 1014.20 1014.34 1014.75 1015.15 1014.70 1014.48 1014.38
1017.16 1017.73 1018.44 1018.44 1017.26 1016.81 1016.96 1017.16 1017.04 1017.26 1017.54 1017.91 1018.61 1019.16 1019.43 1019.84 1019.88 1019.83 1019.65 1019.65 1019.69 1019.83 1020.18 1020.55 1021.55 1021.97 1021.66 1020.92 1020.73 1021.58 1021.83 1022.70 1023.90 1026.00 1024.98 1021.96 1018.02 1014.46 1014.46 1015.04 1014.93 1014.99 1015.11 1015.06 1014.68
1016.00 1015.23 1015.54 1016.72 1016.66 1016.18 1016.07 1015.93 1016.27 1017.19 1017.57 1017.62 1018.80 1018.51 1018.68 1019.75 1019.99 1019.89 1019.85 1020.20 1020.47 1020.44 1020.75 1021.20 1022.20 1022.47 1021.56 1021.25 1020.98 1020.72 1020.87 1021.67 1022.43 1022.53 1022.76 1018.84 1018.74 1015.44 1015.29 1015.56 1015.63 1015.83 1015.62 1015.37 1014.91
1015.60 1014.50 1015.19 1014.94 1014.80 1015.70 1015.06 1014.72 1015.11 1016.23 1016.60 1017.37 1017.59 1017.46 1018.42 1018.47 1018.51 1018.88 1019.60 1020.15 1020.20 1021.18 1021.33 1021.88 1022.67 1023.10 1022.21 1021.30 1020.83 1020.07 1019.14 1019.75 1020.72 1021.11 1020.82 1019.11 1017.74 1014.73 1014.72 1015.19 1015.75 1015.96 1016.17 1015.45 1015.18
1014.62 1013.98 1013.45 1013.33 1014.05 1014.33 1013.04 1013.58 1014.12 1014.89 1015.74 1015.65 1016.25 1017.21 1017.87 1017.22 1018.37 1018.87 1019.13 1019.55 1020.12 1020.85 1021.66 1022.55 1023.28 1024.04 1023.28 1021.78 1020.44 1018.44 1015.57 1017.42 1018.23 1018.33 1018.42 1018.60 1015.38 1014.32 1014.68 1015.48 1015.47 1015.52 1015.82 1015.46 1015.19
Wind_Speed
12 14 14 14 14 13 13 14 14 14 14 13 13 13 14 13 11 5 6 5 6 13 11 6 1 1 2 1 1 3 4 2 2 2 0 3 4 3 5 3 6 4 2 1 3
12 12 14 15 14 14 14 14 15 15 14 13 12 12 12 11 2 6 6 12 12 11 5 4 3 3 1 1 2 4 4 6 2 1 1 5 4 5 5 7 4 3 2 2 3
12 12 13 15 15 15 14 15 15 15 14 12 11 11 11 6 1 3 11 14 15 12 4 1 2 2 2 2 1 3 5 4 2 3 1 1 2 1 3 6 8 4 7 5 4
10 11 13 15 15 15 15 15 16 15 13 12 11 9 9 2 2 3 12 13 12 8 4 1 2 2 3 2 0 2 2 1 3 2 2 2 4 6 5 8 5 9 6 6 5
9 10 12 14 15 15 15 15 16 16 13 11 10 10 1 4 2 5 9 9 5 5 5 3 4 1 4 3 2 1 1 3 1 4 4 2 7 5 9 10 9 8 6 6 8
9 10 12 14 15 16 16 16 16 16 14 11 9 7 2 2 1 6 7 5 5 5 6 6 3 2 4 2 3 1 3 5 5 2 1 4 5 2 5 3 6 3 7 9 8
10 10 12 14 15 16 17 17 16 15 12 10 8 2 4 4 2 5 6 2 3 2 3 2 2 1 1 2 2 1 5 4 3 4 4 7 9 5 6 5 8 9 9 7 8
9 10 11 13 15 17 17 18 17 14 12 9 8 1 1 1 2 4 6 1 5 2 2 2 3 3 4 1 4 5 5 5 3 8 4 7 12 10 6 6 13 12 10 10 11
9 10 12 14 16 18 18 19 16 10 7 8 0 1 1 0 2 3 2 2 5 2 2 2 2 4 6 4 4 8 1 2 9 4 4 1 11 14 5 8 10 10 8 9 6
8 9 12 14 16 18 19 17 5 5 0 1 1 4 2 2 3 4 3 3 2 2 3 5 6 5 6 5 3 2 3 3 6 5 3 7 20 18 15 8 10 9 8 6 6
8 10 11 15 17 19 11 4 5 3 8 1 0 2 1 6 2 4 3 4 1 6 3 4 7 3 3 1 3 3 2 4 5 3 9 4 10 20 17 6 6 5 6 5 5
8 8 10 14 16 18 3 5 2 2 4 1 1 0 1 1 2 3 6 1 2 2 1 6 2 4 4 3 2 4 4 4 6 2 3 8 17 13 8 4 1 3 4 7 5
9 8 10 15 17 4 3 3 1 1 2 1 1 1 1 2 1 4 4 1 4 3 1 6 4 4 3 2 1 3 3 2 5 9 3 7 7 5 5 3 6 7 5 4 4
7 6 9 17 3 3 2 3 2 1 3 2 1 1 0 1 1 1 1 2 3 5 4 4 2 3 2 1 2 3 4 1 4 5 2 4 6 6 4 5 2 4 6 6 7
6 1 6 6 3 2 3 4 2 1 4 2 1 1 1 2 1 1 1 2 3 4 5 2 4 2 2 1 2 5 3 4 2 3 4 1 4 9 3 4 5 2 2 7 8
9 6 4 2 2 3 5 4 0 5 6 1 0 2 2 1 1 1 1 4 2 3 4 3 1 1 1 1 2 5 3 5 3 2 4 4 4 8 5 5 1 1 7 8 9
11 11 6 2 2 5 3 1 4 4 2 3 2 2 1 1 1 1 1 3 4 5 2 1 1 0 2 1 1 6 5 5 8 7 7 2 1 13 7 6 6 3 9 9 8
10 13 4 3 1 4 3 4 4 3 4 1 1 2 3 1 1 0 1 2 2 3 3 4 5 2 2 2 3 4 5 8 5 3 7 4 7 9 6 6 5 6 9 6 9
14 2 2 2 2 2 5 2 5 3 2 4 3 2 3 1 3 2 4 5 4 4 6 4 2 2 4 2 3 4 4 4 8 1 4 5 9 12 8 7 2 7 13 11 13
2 1 2 0 0 3 3 5 6 4 1 1 3 2 4 3 4 5 5 3 5 3 3 4 3 1 3 3 3 3 4 4 5 1 7 7 7 11 5 9 6 11 13 11 11
2 2 2 1 2 4 5 8 5 4 5 2 1 1 4 4 5 4 5 1 4 5 3 4 4 0 3 6 8 1 2 5 5 5 6 4 10 9 8 5 5 8 11 10 11
3 4 0 1 2 3 4 6 5 5 1 4 1 4 5 3 4 3 7 2 6 6 7 2 4 3 7 1 2 3 6 6 7 6 3 4 14 5 6 6 3 8 9 8 11
3 2 0 1 6 4 2 2 3 5 5 6 7 7 2 3 3 3 3 3 6 4 6 7 1 3 6 3 4 5 5 5 6 4 7 7 13 1 1 7 3 8 9 10 12
2 4 1 2 2 6 7 4 5 3 5 4 3 4 2 2 1 3 4 1 2 3 6 4 3 7 8 5 5 5 6 8 7 5 5 13 15 25 18 10 15 14 7 9 11
5 5 7 8 7 3 8 12 9 7 4 6 3 8 7 4 2 5 2 2 3 6 3 4 4 3 5 8 4 7 7 13 13 10 9 9 11 20 12 11 10 5 6 9 12
4 4 2 4 10 14 12 13 12 6 11 7 7 13 11 9 8 7 6 4 6 2 5 3 2 1 6 2 5 8 15 16 17 15 15 21 27 26 23 7 3 6 6 9 11
4 4 3 10 9 11 17 14 13 11 7 6 16 8 11 20 2 2 1 4 6 8 6 6 5 3 8 4 7 9 8 16 6 5 12 9 18 1 5 4 5 5 5 6 8
Wind_Direction
353 349 353 354 347 345 348 345 344 340 335 332 339 342 341 342 327 22 40 288 302 309 322 279 152 243 97 239 230 92 72 197 252 293 222 350 12 319 313 297 346 324 79 118 333
348 347 350 352 345 346 344 342 339 338 331 330 338 338 342 345 302 42 327 336 324 314 336 24 77 136 47 156 7 95 127 213 210 156 304 339 25 343 358 327 299 325 15 0 337
343 347 350 345 347 343 340 339 336 335 330 328 332 337 340 343 43 339 329 338 334 333 195 285 260 203 118 115 109 157 177 186 198 154 141 273 265 265 287 286 228 244 281 281 222
344 346 343 342 343 339 337 335 334 333 328 326 326 333 328 74 179 298 336 339 337 337 107 12 12 63 103 138 24 162 72 73 152 161 144 234 302 306 216 236 259 273 269 282 275
339 342 337 338 337 336 333 331 331 329 323 323 325 327 47 48 294 300 342 342 356 13 47 43 61 3 134 128 39 139 287 315 39 295 242 271 248 231 257 274 288 296 310 263 273
326 335 337 334 335 332 328 327 328 324 320 320 326 329 78 66 245 329 355 356 15 31 25 41 68 308 105 114 146 207 296 283 290 256 337 283 258 87 261 305 344 307 291 294 275
318 328 335 329 331 328 325 323 322 319 310 314 330 338 55 182 152 348 3 349 6 51 51 44 352 101 83 77 6 324 360 9 2 349 342 2 323 211 237 320 319 313 305 284 252
308 318 328 325 328 325 322 320 314 305 295 301 315 9 187 289 252 1 352 330 1 354 80 321 25 83 49 131 32 32 50 15 346 19 2 66 281 270 281 343 302 298 304 308 307
303 318 317 331 324 321 322 315 303 290 273 295 36 117 240 57 350 321 16 351 310 325 316 320 49 79 26 61 25 13 295 327 319 73 355 46 276 268 272 292 272 273 278 294 257
306 323 317 325 325 322 326 315 290 320 344 238 348 54 328 253 297 339 319 325 38 335 39 45 47 66 31 56 206 311 338 306 259 301 351 262 264 283 293 265 267 278 288 290 220
306 303 310 328 332 330 342 3 20 352 42 87 281 267 339 302 282 346 3 340 64 48 86 14 67 96 180 42 126 143 217 257 249 271 348 308 287 287 294 288 260 279 286 254 317
291 306 323 325 329 333 20 65 105 233 311 226 238 246 120 346 351 331 4 122 96 102 68 33 134 189 189 227 185 216 226 262 275 258 315 293 294 284 286 275 337 163 70 58 29
284 305 332 333 325 26 67 79 4 58 250 218 210 277 272 9 120 314 19 331 102 89 315 153 176 161 183 115 341 246 193 170 231 321 255 305 294 323 300 73 73 74 100 57 21
272 309 356 330 54 321 49 330 345 99 60 205 176 330 144 89 287 232 111 106 41 151 152 113 168 181 150 172 152 323 151 90 296 360 279 43 276 303 286 341 111 85 44 3 318
233 322 32 351 293 11 327 324 309 84 4 84 201 126 155 139 73 326 208 109 124 143 105 176 165 171 170 190 176 240 353 279 194 208 23 299 66 270 310 272 223 189 253 277 265
188 145 67 92 70 348 325 318 100 41 260 212 296 199 137 76 20 296 198 51 130 95 56 98 339 82 99 344 240 314 29 45 66 68 20 267 102 277 221 210 196 249 315 306 289
179 143 128 156 164 320 327 26 25 163 5 290 207 193 149 147 110 43 345 39 136 92 222 44 63 318 101 103 355 33 44 346 359 9 221 340 336 250 257 232 173 240 276 280 297
196 129 103 90 296 359 38 25 182 201 232 339 30 64 183 166 240 184 146 143 104 86 106 144 320 183 82 67 157 46 131 144 231 277 282 307 230 251 222 156 159 223 264 293 307
125 80 107 125 346 85 106 201 203 227 103 154 36 94 289 283 183 162 216 201 162 149 153 139 217 43 60 58 97 257 49 162 98 34 27 265 287 290 218 202 272 309 353 313 315
79 115 207 14 255 111 94 223 206 149 180 138 202 120 218 216 177 184 193 206 163 153 153 178 39 177 111 82 12 130 156 70 14 20 301 287 286 246 258 244 328 338 321 300 308
134 222 130 94 223 56 213 206 203 157 166 177 249 252 248 222 200 216 203 239 166 151 120 131 110 24 71 204 178 25 30 51 115 144 172 294 265 224 229 192 260 298 294 297 316
186 232 189 39 134 171 197 190 162 147 160 111 33 222 210 195 216 247 218 235 156 149 144 146 139 197 214 298 190 197 168 146 123 244 218 158 268 263 213 172 206 299 290 302 332
213 111 127 18 197 195 213 167 184 138 176 168 191 205 134 236 258 191 197 356 143 132 158 186 319 6 332 357 352 226 193 135 114 90 205 138 262 305 282 306 305 301 325 341 323
144 175 154 224 306 170 146 195 171 223 152 143 155 110 139 248 144 260 175 131 122 109 127 121 119 181 201 202 131 198 192 174 131 135 193 229 271 281 289 298 320 328 329 319 336
219 213 189 182 214 187 182 171 150 164 196 136 208 229 164 205 279 230 138 106 27 165 99 119 196 188 254 245 231 232 210 187 202 189 182 266 223 264 272 290 283 270 321 318 334
278 169 228 150 152 183 197 191 159 168 160 198 222 193 185 187 200 189 138 199 195 171 155 136 249 139 287 285 203 253 227 215 224 227 258 263 278 274 277 278 287 285 302 332 328
217 269 219 177 163 192 212 200 189 152 222 177 197 134 192 225 138 330 154 138 166 153 161 153 138 92 269 331 294 292 225 186 191 213 208 199 235 17 280 255 242 252 266 305 317